Regional Weather Roundup
Issued by NWS Bismarck, ND

Home | Current Version | Previous Version | Text Only | Print | Product List | Glossary On
Versions: 1 2 3 4 5 6 7 8 9 10 11 12 13 14 15 16 17 18 19 20 21 22 23 24 25 26 27 28 29 30 31 32 33 34 35 36 37 38 39 40 41 42 43 44 45 46 47 48 49 50
000
ASUS43 KBIS 291520
RWRBIS

NWR BROADCAST TEXT
NATIONAL WEATHER SERVICE BISMARCK ND
1000 AM CDT TUE JUL 29 2014

NOTE: "FAIR" INDICATES FEW OR NO CLOUDS BELOW 12,000 FEET WITH NO
SIGNIFICANT WEATHER AND/OR OBSTRUCTIONS TO VISIBILITY.


CITY           SKY/WX    TMP DP  RH WIND       PRES   REMARKS
WILLISTON      SUNNY     69  55  60 CALM      30.21S
MINOT          SUNNY     72  55  55 CALM      30.20F
MINOT AFB      SUNNY     71  60  70 N1        30.20F
BISMARCK       SUNNY     66  54  65 CALM      30.24F
DICKINSON      CLOUDY    70  55  59 SW7       30.23S
GARRISON         N/A     69  59  70 CALM      30.22S
HETTINGER ARPT SUNNY     68  53  58 SW6       30.26S
JAMESTOWN      SUNNY     69  55  60 NW6       30.21S
CARRINGTON     FAIR      68  59  73 NW6       30.23S
CROSBY         FAIR      68  63  83 NW3       30.22S
HARVEY         FAIR      70  59  68 W5        30.22S
HAZEN          FAIR      68  55  64 W3        30.23F
LINTON         FAIR      68  55  64 CALM      30.24S
MANDAN         FAIR      68  55  64 W5        30.25S
RUGBY          FAIR      66  59  77 W3        30.21F
STANLEY        FAIR      68  59  73 S3        30.22S
TIOGA          FAIR      68  57  68 S3        30.25S
WATFORD CITY   FAIR      72  55  56 SW3       30.20S
$$

CITY           SKY/WX    TMP DP  RH WIND       PRES   REMARKS
GRAND FORKS    SUNNY     68  58  70 NW3       30.17F
GRAND FORKS AF SUNNY     69  59  69 NW6       30.18F
DEVILS LAKE    SUNNY     68  54  60 NW5       30.20S
FARGO          SUNNY     69  57  65 NW5       30.18F
CANDO          FAIR      68  57  68 W5        30.22S
CAVALIER       FAIR      70  57  64 N5        30.17F
GRAFTON        FAIR      68  57  68 NW6       30.17F
GWINNER        SUNNY     70  55  60 NW6       30.22S
LANGDON        FAIR      68  55  64 NW3       30.20F
ROLLA          FAIR      68  54  60 N6        30.23S
WALHALLA         N/A     70  57  64 N7          N/A
$$

CITY           SKY/WX    TMP DP  RH WIND       PRES   REMARKS
ABERDEEN       SUNNY     67  55  65 W5        30.23S
MOBRIDGE       SUNNY     67  57  70 CALM      30.22S
BUFFALO          N/A     69  53  56 S7        30.20R
RAPID CITY     CLOUDY    64  54  69 SE3       30.26S
GLASGOW        SUNNY     76  50  40 E8        30.21S
SIDNEY         SUNNY     70  55  60 S6        30.22F
WOLF POINT     SUNNY     70  53  54 E7        30.22S
GLENDIVE       MOSUNNY   72  54  53 W5        30.24S
MILES CITY     PTSUNNY   69  54  58 NE5       30.23S
BAKER          SUNNY     70  53  54 CALM      30.25F
$$

CITY           SKY/WX    TMP DP  RH WIND       PRES   REMARKS
BILLINGS       PTSUNNY   70  51  51 NE10      30.24R
GREAT FALLS    MOSUNNY   71  50  47 VRB3      30.21R
REGINA         SUNNY     72  61  68 N7        30.23S
ESTEVAN        MOSUNNY   70  59  68 N2        30.22F
$$




USA.gov is the U.S. government's official web portal to all federal, state and local government web resources and services.